Home   Weather   Khon Kaen   Past weeks
Flag for Thailand

Past Weather in Khon Kaen, Thailand — Yesterday and Last 2 Weeks

Now
84 °F

Clear.


Feels Like: 87 °F
Forecast: 91 / 78 °F
Wind: 9 mph from East

Location: Khon Kaen Airport

Current Time: Mar 24, 2019 at 1:49:08 am

Latest Report: Mar 24, 2019 at 1:00 am


Visibility: 5 mi

Pressure: 29.80 "Hg

Humidity: 58%

Dew Point: 68 °F

Location of Khon KaenLocation

Past Weather in Khon Kaen — Graph

°F

Khon Kaen Temperature Yesterday

Maximum temperature yesterday: 106 °F (at 4:00 pm)
Minimum temperature yesterday: 73 °F (at 6:00 am)
Average temperature yesterday: 89 °F

High & Low Weather Summary for the Past Weeks

 TemperatureHumidityPressure
High106 °F (Mar 23, 4:00 pm)89% (Mar 20, 5:00 am)30.04 "Hg (Mar 20, 5:00 am)
Low66 °F (Mar 13, 5:00 am)13% (Mar 13, 4:00 pm)29.68 "Hg (Mar 22, 4:00 pm)
Average87 °F46%29.84 "Hg
* Reported Mar 9 12:00 am — Mar 24 12:00 am, Khon Kaen. Weather by CustomWeather, © 2019

Note: Actual official high and low records may vary slightly from our data, if they occured in-between our weather recording intervals... More about our weather records

Advertising

Khon Kaen Weather History for the Previous 24 Hours

Scroll right to see more
 ConditionsComfort  
Time TempWeatherWind HumidityBarometerVisibility
12:00 am
Sun, Mar 24
84 °FClear.6 mph58%29.80 "Hg5 mi
11:00 pm
Sat, Mar 23
86 °FClear.6 mph46%29.80 "Hg5 mi
10:00 pm88 °FClear.3 mph33%29.77 "Hg5 mi
9:00 pm90 °FClear.3 mph29%29.77 "Hg5 mi
8:00 pm90 °FClear.3 mph29%29.74 "Hg5 mi
7:00 pm90 °FClear.2 mph31%29.74 "Hg5 mi
6:00 pm95 °FClear.1 mph26%29.68 "Hg5 mi
5:00 pm102 °FClear.2 mph21%29.68 "Hg5 mi
4:00 pm106 °FClear.2 mph17%29.68 "Hg5 mi
3:00 pm104 °FClear.5 mph17%29.71 "Hg5 mi
2:00 pm104 °FClear.5 mph17%29.74 "Hg5 mi
1:00 pm102 °FClear.6 mph21%29.77 "Hg5 mi
12:00 pm100 °FClear.6 mph22%29.83 "Hg5 mi
11:00 am99 °FClear.5 mph25%29.86 "Hg5 mi
10:00 am95 °FPassing clouds.5 mph30%29.86 "Hg4 mi
9:00 am90 °FPassing clouds.5 mph41%29.86 "Hg4 mi
8:00 am84 °FHaze.5 mph48%29.83 "Hg2 mi
7:00 am75 °FFog.2 mph69%29.83 "Hg2 mi
6:00 am73 °FClear.3 mph74%29.80 "Hg4 mi
5:00 am75 °FClear.No wind69%29.77 "Hg4 mi
4:00 am75 °FClear.2 mph65%29.74 "Hg4 mi
3:00 am77 °FClear.1 mph61%29.74 "Hg4 mi
2:00 am79 °FClear.3 mph54%29.77 "Hg4 mi
1:00 am82 °FClear.3 mph48%29.77 "Hg4 mi
Weather by CustomWeather, © 2019

See weather overview